Regional Weather Roundup
Issued by NWS

Home | Current Version | Previous Version | Graphics & Text | Print | Product List | Glossary On
Versions: 1 2 3 4 5 6 7 8 9 10 11 12 13 14 15 16 17 18 19 20 21 22 23 24 25 26 27 28 29 30 31 32 33 34 35 36 37 38 39 40 41 42 43 44 45 46 47 48 49 50
000
ASUS43 KMKX 312200
RWRWI

WISCONSIN REGIONAL WEATHER ROUNDUP
NATIONAL WEATHER SERVICE MILWAUKEE/SULLIVAN WI
500 PM CDT THU JUL 31 2014

NOTE: "FAIR" INDICATES FEW OR NO CLOUDS BELOW 12,000 FEET WITH NO
SIGNIFICANT WEATHER AND/OR OBSTRUCTIONS TO VISIBILITY.

WIZ001-002-006>008-014>016-023>028-312300-
NORTHWEST WISCONSIN

CITY           SKY/WX    TMP DP  RH WIND       PRES   REMARKS
SUPERIOR ARPT  SUNNY     80  58  46 NW7       29.95S HX  81
ASHLAND        SUNNY     78  56  46 VRB6      29.97S
HAYWARD        SUNNY     79  56  45 CALM      29.98S HX  80
SIREN          MOSUNNY   80  61  52 NW12      29.98S HX  81
RICE LAKE      PTSUNNY   74  61  63 W7        30.00S
LADYSMITH      MOSUNNY   77  60  55 NW8       30.00S
EAU CLAIRE     NOT AVBL
MENOMONIE      CLEAR     82  55  40 W13       29.99F HX  81
NEW RICHMOND   SUNNY     80  54  39 W12       30.00F HX  80
OSCEOLA        MOSUNNY   81  58  46 W13       30.01F HX  81
$$

WIZ003>005-009-010-017-018-312300-
NORTH CENTRAL WISCONSIN

CITY           SKY/WX    TMP DP  RH WIND       PRES   REMARKS
WOODRUFF       SUNNY     80  49  33 NW8       29.99S
RHINELANDER    SUNNY     76  48  37 NW7       30.00R
EAGLE RIVER    MOSUNNY   74  46  35 W10       29.98S
LAND O LAKES   MOSUNNY   75  45  34 NW9       30.00S
PHILLIPS       MOSUNNY   76  54  46 NW3       29.99R
TOMAHAWK       MOSUNNY   75  53  45 NW9       29.99S
MEDFORD        MOSUNNY   70  61  73 W8        30.00R
MERRILL        MOSUNNY   74  62  65 SW7       29.98S
$$

WIZ029-030-035-036-043>047-312300-
CENTRAL WISCONSIN

CITY           SKY/WX    TMP DP  RH WIND       PRES   REMARKS
WAUSAU         LGT RAIN  72  63  73 NW6       29.97R
MOSINEE        MOSUNNY   75  59  57 W14G21    29.99S
MARSHFIELD     MOSUNNY   79  60  52 W10       30.00R HX  80
STEVENS POINT  MOSUNNY   74  58  56 W6        29.99S
WAUPACA        PTSUNNY   83  55  36 W16       29.96S HX  82
WAUTOMA        NOT AVBL
WISC RAPIDS    PTSUNNY   79  60  52 NW7       30.00R HX  80
CAMP DOUGLAS   NOT AVBL
$$

WIZ011>013-019>022-031-037>040-048>050-312300-
NORTHEAST WISCONSIN

CITY           SKY/WX    TMP DP  RH WIND       PRES   REMARKS
ANTIGO         MOSUNNY   76  53  43 NW10G16   29.98S
STURGEON BAY   SUNNY     79  48  34 W8        29.96S
GREEN BAY      MOSUNNY   79  61  53 W8        29.96R HX  80
MANITOWOC      NOT AVBL
APPLETON       PTSUNNY   68  57  68 SW7       29.98R
CLINTONVILLE   MOSUNNY   77  57  50 W8        29.96R
OSHKOSH        MOSUNNY   79  64  60 VRB3      29.97R HX  81
$$

WIZ032>034-041-042-053>061-312300-
SOUTHWEST WISCONSIN

CITY           SKY/WX    TMP DP  RH WIND       PRES   REMARKS
LA CROSSE      SUNNY     83  56  39 W9        30.00S HX  82
SPARTA         MOSUNNY   79  55  43 W9        30.02S
VIROQUA        FAIR      78  56  47 NW7       30.04S
BOSCOBEL       MOSUNNY   82  57  42 W7        30.02S HX  82
PRAIRIE DU CHI MOSUNNY   82  52  35 W8        30.01F HX  81
PLATTEVILLE    PTSUNNY   79  57  46 W9        30.05S HX  80
$$

WIZ056-057-062-063-064-067-068-312300-
SOUTH CENTRAL WISCONSIN

CITY           SKY/WX    TMP DP  RH WIND       PRES   REMARKS
BARABOO/DELLS  SUNNY     80  51  35 W9        30.00S HX  80
LONE ROCK      NOT AVBL
WATERTOWN      MOSUNNY   78  59  51 W9        29.99F HX  80
MADISON        PTSUNNY   81  58  45 VRB7      30.01S HX  81
MIDDLETON      FAIR      81  54  39 W12       30.02S HX  81
MONROE         SUNNY     79  54  41 SW13      30.03F
JANESVILLE     MOSUNNY   82  52  34 W13       30.01S HX  81
$$

WIZ051-052-058>065-066-070>072-312300-
SOUTHEAST WISCONSIN

CITY           SKY/WX    TMP DP  RH WIND       PRES   REMARKS
MILWAUKEE      PTSUNNY   82  55  39 SW13      29.99S HX  81
WAUKESHA       MOSUNNY   79  54  41 W9        30.00S
MILWAUKEE/TIMM SUNNY     81  50  34 W12G18    29.99S HX  80
RACINE         MOSUNNY   81  58  45 W8        30.01S HX  81
BURLINGTON     MOSUNNY   78  54  43 W10       30.01S
KENOSHA        MOSUNNY   81  59  47 W12       30.00F HX  81
FOND DU LAC    MOSUNNY   79  60  52 CALM      29.98S HX  80
SHEBOYGAN      PTSUNNY   72  60  66 SW6       29.98S
WEST BEND      MOSUNNY   79  55  44 SW10      29.98F
JUNEAU         MOSUNNY   79  52  38 SW12      30.00S
$$

LSZ147-162-312300-
LAKE SUPERIOR

STATION/POSITION TIME  TEMP    WIND        PRES    WAVE
                       AIR SEA DIR/SP/G            HT/PER
                 (UTC) (F)     (DEG/KT/KT) (MB)    (FT/S)
W MID LAKE BUOY  2050   50 44  200/  4/  6 1014.3R   0
PORT WING        2140   78     260/  7/ 10 1014.2S
SAXON HARBOR     2100             CALM     1014.9S
$$

LMZ867-665-643>646-312300-
LAKE MICHIGAN

STATION/POSITION TIME  TEMP    WIND        PRES    WAVE
                       AIR SEA DIR/SP/G            HT/PER
                 (UTC) (F)     (DEG/KT/KT) (MB)    (FT/S)
N MID LAKE BUOY  2050   59 55  210/ 14/ 16 1013.5F   1/ 3
NORTHPORT PIER   2100   71     160/  8/ 12 1013.9S
SISTER BAY       2110   83     270/ 10/ 11   N/A
ALGOMA LAKESHORE 2021          210/ 10/ 11   N/A
KEWAUNEE LAKESHO 2100   59     170/ 13/ 15 1014.2F
SHEBOYGAN LAKESH 2100   69     170/ 16/ 17 1015.1F
PORT WASHINGTON  2140   68     100/  2/  5 1015.6F
ATWATER BUOY     2100   68     120/  6     1016.1F
MILWAUKEE LAKESH 2100   80     290/ 11/ 16   N/A
S MID LAKE BUOY  2050   66 64  150/  8/ 10 1016.2F   1
KENOSHA   LAKESH 2100   80     270/ 12/ 19 1015.2S
$$

TC  - TEMPERATURE IN CELSIUS
VSB - VISIBILITY IN STATUTE MILES
WCI - WIND CHILL INDEX
HX  - HEAT INDEX



USA.gov is the U.S. government's official web portal to all federal, state and local government web resources and services.